FW5669 Weather Reports


Display with metric or nautical units.
time (UTC)temp
F
wind
direction
speed
MPH
gust
MPH
rain 1hr
in
rain 24hr
in
rain mn
in
humidity
%
barometer
mb
20260508164601 71 119 0.0 3.0 0.00 0.00 0.00 54 1018.4
20260508164501 71 119 1.0 3.0 0.00 0.00 0.00 54 1018.4
20260508163101 70 188 0.0 2.0 0.00 0.00 0.00 56 1018.5
20260508161600 69 283 0.0 2.0 0.00 0.00 0.00 56 1018.6
20260508160002 68 256 0.0 2.0 0.00 0.00 0.00 61 1018.6
20260508154606 66 294 0.0 1.0 0.00 0.00 0.00 64 1018.7
20260508153101 66 287 0.0 2.0 0.00 0.00 0.00 65 1018.6
20260508151601 66 60 0.0 1.0 0.00 0.00 0.00 66 1018.4
20260508150100 63 27 0.0 3.0 0.00 0.00 0.00 66 1018.3
20260508144600 61 48 0.0 2.0 0.00 0.00 0.00 71 1018.3
20260508143103 57 59 0.0 2.0 0.00 0.00 0.00 79 1018.3
20260508143001 57 352 0.0 2.0 0.00 0.00 0.00 79 1018.2
20260508141621 54 18 0.0 1.0 0.00 0.00 0.00 89 1018.2
20260508134619 51 10 0.0 0.0 0.00 0.00 0.00 93 1018.0
20260508133102 51 354 0.0 0.0 0.00 0.00 0.00 92 1018.1
20260508131559 52 354 0.0 0.0 0.00 0.00 0.00 92 1017.8
20260508130100 52 354 0.0 0.0 0.00 0.00 0.00 93 1017.6
20260508130000 52 354 0.0 0.0 0.00 0.00 0.00 93 1017.6
20260508124603 52 354 0.0 0.0 0.00 0.00 0.00 93 1017.6
20260508123100 52 354 0.0 0.0 0.00 0.00 0.00 93 1017.7
20260508121603 53 354 0.0 0.0 0.00 0.00 0.00 93 1017.7
20260508120100 53 354 0.0 0.0 0.00 0.00 0.00 93 1017.5
20260508120004 53 354 0.0 0.0 0.00 0.00 0.00 93 1017.5
20260508114600 53 354 0.0 0.0 0.00 0.00 0.00 93 1017.5
20260508113115 54 349 0.0 0.0 0.00 0.00 0.00 92 1017.5
20260508111604 54 349 0.0 0.0 0.00 0.00 0.00 92 1017.5
20260508110002 55 349 0.0 0.0 0.00 0.00 0.00 92 1017.3
20260508104601 55 349 0.0 0.0 0.00 0.00 0.00 92 1017.4
20260508103105 56 349 0.0 2.0 0.00 0.00 0.00 92 1017.4
20260508101600 56 39 1.0 5.0 0.00 0.00 0.00 93 1017.4
20260508100100 56 26 0.0 0.0 0.00 0.00 0.00 92 1017.4
20260508100003 56 26 0.0 0.0 0.00 0.00 0.00 92 1017.5
20260508094603 56 34 0.0 0.0 0.00 0.00 0.00 93 1017.6
20260508093059 56 35 0.0 1.0 0.00 0.00 0.00 92 1017.7
20260508091559 57 16 0.0 1.0 0.00 0.00 0.00 92 1017.8
20260508090106 57 16 0.0 1.0 0.00 0.00 0.00 92 1017.7
20260508090003 57 16 0.0 1.0 0.00 0.00 0.00 92 1017.7
20260508084600 58 16 0.0 1.0 0.00 0.00 0.00 92 1017.8
20260508083117 58 39 0.0 1.0 0.00 0.00 0.00 92 1017.6
20260508081605 58 39 0.0 2.0 0.00 0.00 0.00 92 1017.6
20260508080001 58 39 0.0 1.0 0.00 0.00 0.00 92 1017.7
20260508074603 58 39 0.0 2.0 0.00 0.00 0.00 91 1017.7
20260508073100 59 39 0.0 1.0 0.00 0.00 0.00 90 1017.7
20260508071601 60 39 0.0 0.0 0.00 0.00 0.00 91 1017.7
20260508070100 61 39 0.0 0.0 0.00 0.00 0.00 90 1017.5
20260508070005 61 39 0.0 0.0 0.00 0.00 0.00 90 1017.5
20260508064502 60 55 0.0 1.0 0.00 0.00 0.00 92 1017.4
20260508063002 60 187 0.0 0.0 0.00 0.00 0.00 91 1017.5
20260508061503 60 187 0.0 0.0 0.00 0.00 0.00 90 1017.6
20260508060002 61 187 0.0 1.0 0.00 0.00 0.00 90 1017.6
20260508054501 61 187 0.0 1.0 0.00 0.00 0.00 90 1017.6
20260508053002 61 187 0.0 0.0 0.00 0.00 0.00 89 1017.8
20260508051503 62 187 0.0 2.0 0.00 0.00 0.00 89 1017.8
20260508050100 62 187 0.0 2.0 0.00 0.00 0.00 89 1017.8
20260508050001 62 187 0.0 2.0 0.00 0.00 0.00 88 1017.7
20260508044612 63 187 0.0 0.0 0.00 0.00 0.00 88 1017.7
20260508043001 63 187 0.0 0.0 0.00 0.00 0.00 87 1017.5
20260508041600 64 187 0.0 1.0 0.00 0.00 0.00 86 1017.4
20260508040101 65 187 0.0 1.0 0.00 0.00 0.00 84 1017.4
20260508040004 65 187 0.0 1.0 0.00 0.00 0.00 84 1017.4
20260508034502 66 187 0.0 0.0 0.00 0.00 0.00 82 1017.2
20260508033001 67 187 0.0 1.0 0.00 0.00 0.00 80 1017.1
20260508031503 69 187 0.0 1.0 0.00 0.00 0.00 76 1017.0
20260508030002 70 187 0.0 0.0 0.00 0.00 0.00 73 1017.0
20260508024501 72 187 0.0 1.0 0.00 0.00 0.00 71 1016.9
20260508023001 74 187 0.0 0.0 0.00 0.00 0.00 68 1016.8
20260508021601 75 187 0.0 1.0 0.00 0.00 0.00 66 1016.7
20260508020108 75 211 0.0 2.0 0.00 0.00 0.00 64 1016.7
20260508020003 75 211 0.0 2.0 0.00 0.00 0.00 63 1016.7
20260508014502 75 170 1.0 2.0 0.00 0.00 0.00 63 1016.8
20260508013001 76 254 0.0 2.0 0.00 0.00 0.00 62 1016.9
20260508011502 76 205 0.0 2.0 0.00 0.00 0.00 62 1016.9
20260508010101 76 273 0.0 2.0 0.00 0.00 0.00 63 1016.9
20260508004611 76 121 0.0 3.0 0.00 0.00 0.00 63 1017.1
20260508003105 76 172 0.0 4.0 0.00 0.00 0.00 62 1017.2
20260508001600 77 139 1.0 4.0 0.00 0.00 0.00 61 1017.2
20260508000002 77 150 1.0 3.0 0.00 0.00 0.00 62 1017.2
20260507234501 77 273 0.0 3.0 0.00 0.00 0.00 62 1017.2
20260507233001 77 234 1.0 3.0 0.00 0.00 0.00 63 1017.3
20260507231501 77 155 2.0 3.0 0.00 0.00 0.00 62 1017.4
20260507230000 78 230 1.0 3.0 0.00 0.00 0.00 62 1017.8
20260507224602 78 226 1.0 4.0 0.00 0.00 0.00 62 1017.8
20260507223102 78 246 1.0 4.0 0.00 0.00 0.00 60 1018.3
20260507221600 78 218 1.0 4.0 0.00 0.00 0.00 61 1018.6
20260507220100 77 224 0.0 3.0 0.00 0.00 0.00 59 1018.6
20260507214619 77 192 0.0 4.0 0.00 0.00 0.00 62 1018.7
20260507213108 77 208 2.0 5.0 0.00 0.00 0.00 63 1019.0
20260507211624 76 137 1.0 4.0 0.00 0.00 0.00 64 1019.2
20260507210002 75 177 2.0 4.0 0.00 0.00 0.00 65 1019.3
20260507204608 75 177 0.0 4.0 0.00 0.00 0.00 65 1019.5
20260507203103 75 212 2.0 4.0 0.00 0.00 0.00 64 1019.7
20260507201608 74 208 1.0 3.0 0.00 0.00 0.00 69 1019.8
20260507200059 73 233 2.0 5.0 0.00 0.00 0.00 68 1019.8
20260507194635 72 142 1.0 4.0 0.00 0.00 0.00 71 1020.0
20260507193101 72 193 1.0 4.0 0.00 0.00 0.00 71 1020.1
20260507191601 72 201 1.0 4.0 0.00 0.00 0.00 71 1020.3
20260507190100 72 149 2.0 6.0 0.00 0.00 0.00 70 1020.2
20260507184607 72 177 1.0 4.0 0.00 0.00 0.00 73 1020.4
20260507183100 71 204 1.0 4.0 0.00 0.00 0.00 74 1020.5
20260507181600 71 145 0.0 4.0 0.00 0.00 0.00 74 1020.4
20260507180106 71 262 1.0 4.0 0.00 0.00 0.00 73 1020.3
20260507180002 71 189 2.0 4.0 0.00 0.00 0.00 73 1020.3
20260507174600 71 228 1.0 4.0 0.00 0.00 0.00 72 1020.3
20260507173100 72 188 0.0 2.0 0.00 0.00 0.00 66 1020.2
20260507171604 71 177 0.0 4.0 0.00 0.00 0.00 65 1020.3
20260507171500 71 177 1.0 4.0 0.00 0.00 0.00 65 1020.3
20260507170109 71 29 1.0 0.0 4.73 0.00 0.00 68 1020.4